SCP
0 0 0 0 0 0 0 0 0 0 0 0 0 0 0 0 0 0 -0 -0 -0 -0 0 0 -0 -0 -0 -0 -0 -0 -0 -0 -0 -0 -0 -0 -0 -0 -0 -0 -0 -0 -0 -0 -0 -0 -0 -0 -0
0 0 0 0 0 0 0 0 0 0 0 0 0 0 0 0 0 0 0 -0 0 -0 0 0 -0 -0 -0 -0 0 -0 -0 -0 -0 -0 -0 -0 -0 -0 -0 -0 -0 -0 -0 -0 -0 -0 -0 -0 -0
0 0 0 0 0 0 0 -0 0 0 0 0 0 0 0 0 0 0 0 -0 0 -0 -0 0 0 0 0 0 -0 -0 0 -0 -0 -0 -0 -0 -0 -0 -0 -0 -0 -0 -0 -0 -0 -0 -0 -0 -0
0 0 0 0 0 0 0 0 0 0 0 0 0 0 0 0 0 0 -0 -0 -0 -0 -0 0 0 0 0 0 0 -0 0 -0 -0 -0 -0 -0 -0 -0 -0 -0 -0 -0 -0 -0 -0 -0 -0 -0 -0
0 0 0 0 0 0 0 0 0 0 0 0 0 0 0 0 0 -0 -0 0 -0 0 0 0 0 0 -0 0 0 0 0 -0 -0 -0 -0 -0 -0 -0 -0 -0 -0 -0 -0 -0 -0 -0 -0 -0 -0
0 0 0 0 0 0 0 0 0 0 0 0 0 0 0 0 -0 -0 -0 -0 -0 -0 0 0 0 -0 -0 0 0 0 -0 -0 -0 -0 -0 -0 -0 -0 -0 -0 -0 -0 -0 -0 -0 -0 -0 -0 -0
0 0 0 0 0 0 0 0 0 0 0 0 -0 -0 0 0 -0 -0 -0 -0 -0 0 0 0 0 0 0 0 0 0 -0 -0 -0 -0 -0 -0 -0 -0 -0 -0 -0 -0 -0 -0 -0 -0 -0 -0 -0
0 0 0 0 0 0 0 0 0 0 0 0 0 0 0 -0 -0 -0 -0 -0 -0 0 0 0 0 0 0 0 0 0 0 -0 -0 -0 -0 -0 -0 -0 -0 0 -0 -0 -0 0 0 0 0 0 0
0 0 0 0 0 0 0 0 0 0 0 0 0 0 0 -0 -0 -0 -0 -0 0 0 0 0 0 0 0 0 0 0 -0 -0 -0 -0 -0 0 0 0 0 0 0 0 0 0 0 0 0 0 0
0 0 0 0 0 0 0 0 0 0 0 0 0 0 0 -0 -0 -0 -0 -0 -0 0 0 0 0 0 0 0 0 0 0 0 0 0 0 0 0 0 0 0 0 0 0 0 0 0 0 0 0
0 0 0 0 0 0 0 0 0 0 0 0 0 0 0 0 -0 -0 -0 -0 -0 -0 0 0 0 0 0 0 0 0 0 0 0 0 0 0 0 0 0 0 0 0 0 0 0 0 0 0 0
0 0 0 0 0 0 0 0 0 0 0 0 0 -0 -0 -0 -0 -0 -0 -0 0 0 0 0 0 0 0 0 0 0 0 0 0 0 0 0 0 0 0 0 0 0 0 0 0 0 0 0 0
0 0 0 0 0 0 0 0 0 0 0 0 0 0 0 0 0 0 0 0 0 0 0 0 0 0 0 0 0 0 0 0 0 0 0 0 0 0 0 0 0 0 0 0 0 0 0 0 0
0 0 0 0 0 0 0 0 0 0 0 0 0 0 0 0 0 0 0 0 0 0 0 0 0 0 0 0 0 0 0 0 0 0 0 0 0 0 0 0 0 0 0 0 0 0 0 0 0
0 0 0 0 0 0 0 0 0 0 0 0 0 0 0 0 0 -0 0 0 0 0 0 0 0 0 0 0 0 0 0 0 0 0 0 0 0 0 0 0 0 0 0 0 0 0 0 0 0
0 0 0 0 0 0 0 0 0 0 0 0 0 0 0 0 0 0 0 0 0 0 0 0 0 0 0 0 0 0 0 0 0 0 0 0 0 0 0 0 0 0 0 0 0 0 0 0 0
0 0 0 0 0 0 0 0 -0 0 0 0 0 0 0 0 0 0 0 0 0 0 0 0 0 0 0 0 0 0 0 0 0 0 0 0 0 0 0 0 0 0 0 0 0 0 0 0 0
0 0 0 0 0 0 0 0 0 0 0 0 0 0 0 0 0 0 0 0 0 0 0 0 0 0 0 0 0 0 0 0 0 0 0 0 0 0 0 0 0 0 0 0 0 0 0 0 0
0 0 0 0 0 0 0 0 0 0 0 0 0 0 0 0 0 0 0 0 0 0 0 0 0 0 0 0 0 0 0 0 0 0 0 0 0 0 0 0 0 0 0 0 0 0 0 0 0
0 0 0 0 0 0 0 -0 0 0 0 -0 0 0 0 0 -0 0 0 0 0 0 0 0 0 0 0 0 0 0 0 0 0 0 0 0 0 0 0 0 0 0 0 0 0 0 0 0 0
0 0 0 0 0 0 0 -0 -0 0 0 0 0 0 0 0 0 0 0 0 0 0 0 0 0 0 0 0 0 0 0 0 0 0 0 0 0 0 0 0 0 0 0 0 0 0 0 0 0
0 0 0 0 0 0 0 -0 -0 0 0 0 0 0 0 0 0 0 0 0 0 0 0 0 0 0 0 0 0 0 0 0 0 0 0 0 0 0 0 0 0 0 0 0 0 0 0 0 0
0 0 0 0 0 0 0 -0 -0 -0 0 0 0 0 0 0 0 0 0 0 0 0 0 0 0 0 0 0 0 0 0 0 0 0 0 0 0 0 0 0 0 0 0 0 0 0 0 0 0
0 0 0 0 0 0 0 0 -0 -0 0 0 0 0 0 0 0 0 0 0 0 0 0 0 0 0 0 0 0 0 0 0 0 0 0 0 0 0 0 0 0 0 0 0 0 0 0 0 0
0 0 0 0 0 0 0 0 0 0 -0 0 0 0 0 0 0 0 0 0 0 0 0 0 0 0 0 0 0 0 0 0 0 0 0 0 0 0 0 0 0 0 0 0 0 0 0 0 0
0 0 0 0 0 0 0 0 -0 -0 0 0 0 0 0 0 0 0 0 0 0 0 0 0 0 0 0 0 0 0 0 0 0 0 0 0 0 0 0 0 0 0 0 0 0 0 0 0 0
0 0 0 0 0 0 0 0 0 0 0 0 0 0 0 0 0 0 0 0 0 0 0 0 0 0 0 0 0 0 0 0 0 0 0 0 0 0 0 0 0 0 0 0 0 0 0 0 0
0 0 0 0 0 0 0 0 0 0 0 0 0 0 0 0 0 0 0 0 0 0 0 0 0 0 0 0 0 0 0 0 0 0 0 0 0 0 0 0 0 0 0 0 0 0 0 0 0
0 0 0 0 0 0 0 0 0 0 0 0 0 0 0 0 0 0 0 0 0 0 0 0 0 0 0 0 0 0 0 0 0 0 0 0 0 0 0 0 0 0 0 0 0 0 0 0 0
0 0 0 0 0 0 0 0 0 0 0 0 0 0 0 0 0 0 0 0 0 0 0 0 0 0 0 0 0 0 0 0 0 0 0 0 0 0 0 0 0 0 0 0 0 0 0 0 0
Wind_Speed_500mb
14 16 15 8 8 9 2 2 3 5 3 4 11 11 14 10 5 6 28 20 24 37 25 19 24 23 21 22 21 17 14 13 9 21 22 30 30 31 28 32 32 29 30 29 31 29 30 33 36
11 12 10 4 9 6 7 7 9 2 23 31 23 16 10 5 6 21 32 25 28 31 22 21 24 24 21 23 21 17 15 16 9 13 26 28 29 30 33 31 31 30 31 30 29 27 28 28 30
11 12 6 8 6 7 8 7 7 13 28 3 11 15 7 10 18 35 23 32 28 27 20 21 22 24 23 23 21 19 15 14 12 16 22 21 27 28 31 30 30 30 30 29 28 26 26 27 28
6 5 8 7 7 6 9 11 12 17 10 4 21 15 8 14 23 23 32 29 30 25 20 21 21 21 24 25 24 20 17 21 15 18 21 20 24 26 27 28 29 29 29 28 29 27 25 27 29
5 4 7 4 6 3 3 19 22 6 8 15 8 7 14 21 17 26 32 28 31 29 24 21 19 22 25 27 24 19 22 17 12 16 17 18 21 24 27 26 27 27 27 29 27 25 22 24 25
2 5 6 3 7 5 3 19 13 9 13 17 14 20 13 18 21 34 29 26 25 25 24 22 22 22 27 27 23 22 17 12 13 13 14 18 19 24 25 25 25 26 26 27 25 24 21 20 21
4 7 7 6 5 3 9 19 10 15 17 7 26 12 14 27 26 32 31 27 22 19 23 25 24 26 25 27 25 20 15 12 8 14 15 18 19 21 22 22 21 23 24 23 22 21 20 16 12
3 3 6 3 7 7 11 11 13 25 5 27 11 11 11 42 38 37 31 31 31 23 26 27 25 24 26 25 25 19 12 10 8 13 17 18 20 20 20 20 19 19 21 20 19 17 14 11 6
4 5 4 7 8 5 16 8 13 11 24 17 18 12 8 45 49 46 42 40 38 32 28 30 27 26 26 28 27 21 14 12 12 15 17 17 17 18 18 18 18 18 19 18 15 12 10 8 2
5 5 11 5 7 8 17 14 24 13 16 10 15 17 21 45 54 58 53 51 46 41 33 33 31 29 25 23 26 25 21 15 13 14 17 18 17 17 16 16 15 15 15 14 10 7 6 4 1
8 9 6 4 3 11 11 7 9 19 6 21 25 26 38 50 55 57 55 53 47 41 38 36 33 31 28 26 26 27 25 22 17 16 16 15 16 17 16 14 13 12 11 9 8 6 4 1 2
6 12 13 6 4 5 6 10 8 24 9 12 17 19 38 51 59 60 61 53 47 48 44 38 37 35 33 31 28 26 29 27 24 21 20 19 20 20 19 17 15 14 11 9 8 8 6 3 5
8 7 9 13 15 12 11 16 11 22 14 9 20 29 40 47 56 56 57 55 51 49 49 46 42 40 37 36 34 33 32 32 27 24 22 23 21 20 19 19 16 14 13 11 10 9 7 6 4
4 23 21 10 8 11 11 9 6 11 20 28 25 31 43 49 49 58 59 62 60 51 54 52 50 44 40 37 34 35 35 33 33 29 25 25 24 22 18 19 19 17 15 14 12 10 9 8 7
10 2 1 14 10 6 8 10 12 16 19 28 29 37 46 51 52 58 56 60 64 60 57 59 54 48 45 41 34 34 36 37 37 32 31 29 27 24 24 25 24 19 18 17 15 13 12 11 10
6 5 6 5 15 7 16 16 15 32 25 28 32 40 47 53 55 56 58 56 64 65 66 62 58 55 51 47 41 38 40 39 40 37 36 33 31 30 29 28 25 23 22 20 21 20 18 15 15
7 8 9 4 24 6 10 10 21 32 34 38 44 50 53 56 57 59 60 56 60 66 69 69 64 63 56 51 47 43 41 43 43 42 41 37 37 36 33 30 27 27 26 24 24 24 22 17 16
11 7 7 13 13 11 10 15 12 13 19 42 51 53 57 61 61 57 59 58 57 63 62 65 67 67 62 59 55 53 50 47 48 47 45 42 41 40 39 36 33 33 32 30 26 27 27 23 23
9 8 10 6 6 8 13 24 19 50 32 35 32 47 62 67 61 59 55 57 58 65 65 65 63 70 70 71 69 65 64 55 51 54 49 48 47 45 44 42 39 39 38 34 30 30 32 30 28
6 5 6 8 7 8 15 27 20 27 37 53 56 54 51 64 70 67 61 60 62 67 69 68 68 65 69 73 76 74 69 64 56 53 54 53 53 50 49 46 44 43 43 40 39 39 39 37 36
9 13 7 10 4 7 6 24 21 17 53 64 65 63 64 67 69 68 69 70 65 66 73 72 69 69 68 68 75 79 77 74 70 66 61 59 58 55 54 52 48 47 47 46 43 41 44 43 45
22 14 9 8 5 9 10 14 13 11 27 24 61 73 77 78 77 79 73 70 75 71 67 70 70 71 68 68 75 77 84 86 79 73 64 61 62 61 59 58 54 53 51 51 48 44 45 46 46
11 13 22 3 5 10 7 8 10 5 15 20 46 67 84 87 84 83 81 77 66 73 71 67 69 72 73 73 75 75 80 87 84 82 75 69 66 67 64 63 60 60 59 56 55 53 55 54 56
13 9 5 6 4 21 19 18 12 15 15 16 37 65 69 66 67 74 83 78 78 73 82 75 73 71 74 73 75 81 81 81 86 86 84 78 73 72 72 68 67 66 66 65 61 60 62 63 65
16 18 6 11 14 23 11 15 39 12 18 21 33 62 69 58 62 53 64 75 77 78 77 83 79 74 70 71 76 82 84 80 82 82 80 80 79 78 75 72 72 73 71 70 69 69 70 70 74
50 34 10 16 11 9 8 19 14 25 59 66 68 62 55 53 51 50 50 56 76 73 72 77 80 75 74 72 72 76 81 81 80 82 80 78 78 76 73 72 70 71 74 74 75 77 78 79 80
18 28 17 9 4 4 11 16 15 19 21 37 51 69 78 49 39 39 43 46 50 67 70 71 76 77 76 76 74 75 75 79 80 79 78 77 75 74 71 70 69 66 67 70 75 80 82 86 87
26 27 10 1 8 11 12 12 20 12 42 38 26 51 71 67 38 29 26 26 32 43 60 67 70 70 68 70 76 75 73 72 71 73 73 73 74 73 71 70 68 64 63 65 69 74 77 82 87
21 30 17 13 10 10 7 16 16 37 31 35 39 57 56 65 57 43 35 33 33 37 41 50 54 54 55 58 61 67 70 70 70 72 73 76 76 75 76 74 71 68 67 65 68 69 75 78 79
38 25 40 14 27 8 4 23 9 19 17 9 26 39 38 42 47 46 38 32 31 28 25 30 38 45 47 50 54 57 59 61 66 70 70 68 71 71 69 67 67 65 62 63 67 70 69 77 80
Wind_Direction_500mb
301 308 326 341 52 62 29 217 284 127 70 46 105 117 129 66 109 192 152 159 160 173 167 163 157 158 150 137 126 116 103 70 80 92 98 102 95 95 92 97 94 94 92 96 98 98 89 84 86
296 308 327 69 87 71 279 271 167 187 134 108 84 84 61 86 117 139 150 154 149 168 168 165 165 167 162 151 137 134 108 96 85 81 114 104 100 95 98 100 98 94 96 99 102 101 94 87 82
305 329 353 85 115 159 188 205 160 128 153 97 109 83 86 118 122 147 157 153 164 170 168 165 167 166 167 164 158 149 147 136 131 109 115 107 105 102 101 100 101 99 100 104 109 106 101 92 89
334 340 63 84 182 215 198 170 174 142 126 161 125 75 89 140 156 162 159 168 175 177 172 164 164 169 170 166 164 167 174 166 166 111 105 114 109 106 106 101 104 104 106 110 109 110 105 102 97
336 28 56 75 266 262 213 165 166 138 124 135 142 141 129 154 162 164 161 175 180 182 172 158 162 161 157 163 171 174 177 180 177 116 112 116 114 108 108 108 109 109 110 111 113 111 104 97 93
314 80 70 222 262 282 187 167 166 162 147 146 108 128 146 180 179 161 169 177 186 191 165 166 163 161 157 161 167 163 179 174 145 120 126 121 115 116 119 117 118 117 116 117 118 114 106 96 94
90 91 192 173 254 245 205 185 184 167 150 169 145 126 169 178 169 166 181 186 196 193 181 174 168 166 166 162 166 169 161 174 162 143 137 133 129 126 127 124 121 120 121 122 122 119 115 106 92
57 75 142 242 212 213 173 144 182 164 131 148 167 177 188 181 169 180 191 195 198 206 193 188 179 176 174 173 179 177 169 162 163 155 150 149 141 136 134 129 128 129 131 131 128 124 112 107 95
123 60 194 209 179 217 165 139 158 163 153 179 189 183 198 179 173 187 198 197 200 202 202 199 193 185 184 182 180 185 185 185 178 171 163 156 149 144 141 138 138 142 144 139 133 126 120 111 72
136 131 218 245 206 197 184 176 161 156 162 189 182 186 180 181 181 189 202 198 202 206 208 205 200 196 196 197 195 195 194 193 190 179 170 164 161 157 156 156 157 160 159 156 154 153 142 124 16
172 177 239 269 119 166 156 182 184 148 228 213 200 190 181 185 188 195 200 204 205 210 215 213 208 205 205 206 205 205 205 200 198 188 181 176 176 177 176 183 185 183 179 176 177 178 174 206 329
169 241 240 283 68 111 173 178 207 189 223 252 201 215 191 194 195 199 203 202 208 214 220 218 215 213 210 211 215 215 213 213 211 202 194 188 188 188 192 197 201 205 207 210 210 213 216 248 309
160 224 254 263 263 247 204 215 226 232 223 219 200 205 203 203 204 206 208 205 210 214 218 222 216 213 213 214 216 218 220 223 223 216 209 203 202 201 207 212 215 221 227 230 228 235 235 254 329
205 210 233 276 260 220 191 228 201 243 215 222 220 215 211 211 211 210 210 211 213 214 218 223 224 215 214 214 216 221 223 226 228 221 218 217 217 216 223 233 235 239 245 247 247 248 252 251 289
229 56 238 236 226 236 169 285 228 225 217 218 213 215 217 219 217 218 218 215 217 216 218 226 230 218 217 218 220 224 225 226 229 228 224 224 225 225 226 231 237 242 249 252 256 255 254 269 271
145 134 229 237 169 231 170 253 244 225 207 211 224 223 224 225 227 225 224 226 222 224 223 227 233 230 222 223 225 228 227 229 231 231 229 229 230 231 234 238 244 246 253 261 262 257 251 256 274
353 191 181 253 200 131 192 253 238 236 219 228 236 236 229 230 229 229 228 230 229 228 229 230 232 231 231 230 229 232 234 236 236 234 233 233 235 236 241 246 248 251 255 261 268 257 248 249 271
188 181 193 194 210 200 234 252 279 220 218 232 244 243 239 235 239 237 234 234 232 229 230 231 233 229 232 235 236 235 237 238 239 239 239 237 239 242 246 248 248 250 256 259 263 258 245 247 253
152 169 175 219 263 196 237 250 247 255 256 254 255 243 242 242 245 242 240 236 234 227 226 224 228 228 231 234 235 236 238 240 240 240 239 240 241 241 245 250 251 252 256 263 263 261 248 244 252
160 206 219 296 271 174 283 268 242 244 253 256 258 250 246 246 248 247 241 235 234 231 227 227 226 228 231 235 238 238 241 244 246 249 245 243 243 245 248 251 254 256 258 257 252 254 252 241 249
196 177 189 206 317 220 279 272 264 241 243 253 254 251 252 250 249 250 247 240 236 235 233 229 229 227 233 237 239 239 242 245 247 247 247 244 245 246 247 252 254 254 254 254 254 253 250 244 246
228 170 205 219 166 226 160 280 247 237 244 236 248 247 248 248 249 251 247 245 236 239 239 237 236 233 232 234 238 241 243 245 248 250 252 251 248 248 249 249 251 251 252 253 252 249 247 245 246
206 159 209 245 276 339 217 275 268 254 256 246 246 247 250 249 248 248 246 242 242 240 241 241 238 238 237 236 239 243 246 248 252 253 254 253 253 251 251 252 253 252 251 254 253 250 246 248 251
130 93 91 73 131 255 222 216 205 213 207 241 252 256 256 253 253 253 247 247 245 245 240 240 238 241 240 239 241 244 247 248 251 252 254 256 256 255 255 254 254 255 255 256 257 255 252 252 255
174 159 186 199 211 244 182 199 245 231 237 241 252 252 257 258 256 252 243 243 241 242 241 241 239 240 243 244 245 245 248 251 254 256 258 260 261 261 261 260 259 259 259 259 259 257 256 255 255
197 185 170 194 204 258 92 232 244 211 233 247 254 263 264 261 256 249 247 242 239 242 241 242 242 244 244 247 250 250 250 252 255 257 258 262 264 268 270 271 267 267 266 266 264 262 260 258 258
188 208 187 99 64 51 217 282 288 250 262 258 252 250 251 252 242 245 243 237 236 239 243 244 245 247 248 248 252 254 253 253 256 259 263 265 268 270 273 274 274 272 271 270 269 268 267 265 262
184 179 183 140 165 245 255 264 236 233 223 231 244 233 243 239 244 238 225 224 230 237 240 243 246 249 253 254 253 255 258 260 263 265 267 270 272 274 275 277 278 278 277 275 271 270 268 267 270
188 194 197 182 173 196 258 254 209 217 216 232 233 234 242 233 238 237 230 232 235 239 237 235 235 239 245 250 251 254 256 259 262 263 265 267 271 272 273 274 275 276 275 274 273 269 272 273 273
208 205 203 212 218 222 178 258 242 235 251 278 237 236 228 222 220 219 221 222 226 227 223 224 229 237 244 249 252 254 257 259 261 263 265 267 268 271 272 274 275 277 277 278 279 274 275 271 271
Wind_Speed_850mb
14 16 15 8 8 9 2 2 3 5 3 4 11 11 14 10 5 6 28 20 24 37 25 19 24 23 21 22 21 17 14 13 9 21 22 30 30 31 28 32 32 29 30 29 31 29 30 33 36
11 12 10 4 9 6 7 7 9 2 23 31 23 16 10 5 6 21 32 25 28 31 22 21 24 24 21 23 21 17 15 16 9 13 26 28 29 30 33 31 31 30 31 30 29 27 28 28 30
11 12 6 8 6 7 8 7 7 13 28 3 11 15 7 10 18 35 23 32 28 27 20 21 22 24 23 23 21 19 15 14 12 16 22 21 27 28 31 30 30 30 30 29 28 26 26 27 28
6 5 8 7 7 6 9 11 12 17 10 4 21 15 8 14 23 23 32 29 30 25 20 21 21 21 24 25 24 20 17 21 15 18 21 20 24 26 27 28 29 29 29 28 29 27 25 27 29
5 4 7 4 6 3 3 19 22 6 8 15 8 7 14 21 17 26 32 28 31 29 24 21 19 22 25 27 24 19 22 17 12 16 17 18 21 24 27 26 27 27 27 29 27 25 22 24 25
2 5 6 3 7 5 3 19 13 9 13 17 14 20 13 18 21 34 29 26 25 25 24 22 22 22 27 27 23 22 17 12 13 13 14 18 19 24 25 25 25 26 26 27 25 24 21 20 21
4 7 7 6 5 3 9 19 10 15 17 7 26 12 14 27 26 32 31 27 22 19 23 25 24 26 25 27 25 20 15 12 8 14 15 18 19 21 22 22 21 23 24 23 22 21 20 16 12
3 3 6 3 7 7 11 11 13 25 5 27 11 11 11 42 38 37 31 31 31 23 26 27 25 24 26 25 25 19 12 10 8 13 17 18 20 20 20 20 19 19 21 20 19 17 14 11 6
4 5 4 7 8 5 16 8 13 11 24 17 18 12 8 45 49 46 42 40 38 32 28 30 27 26 26 28 27 21 14 12 12 15 17 17 17 18 18 18 18 18 19 18 15 12 10 8 2
5 5 11 5 7 8 17 14 24 13 16 10 15 17 21 45 54 58 53 51 46 41 33 33 31 29 25 23 26 25 21 15 13 14 17 18 17 17 16 16 15 15 15 14 10 7 6 4 1
8 9 6 4 3 11 11 7 9 19 6 21 25 26 38 50 55 57 55 53 47 41 38 36 33 31 28 26 26 27 25 22 17 16 16 15 16 17 16 14 13 12 11 9 8 6 4 1 2
6 12 13 6 4 5 6 10 8 24 9 12 17 19 38 51 59 60 61 53 47 48 44 38 37 35 33 31 28 26 29 27 24 21 20 19 20 20 19 17 15 14 11 9 8 8 6 3 5
8 7 9 13 15 12 11 16 11 22 14 9 20 29 40 47 56 56 57 55 51 49 49 46 42 40 37 36 34 33 32 32 27 24 22 23 21 20 19 19 16 14 13 11 10 9 7 6 4
4 23 21 10 8 11 11 9 6 11 20 28 25 31 43 49 49 58 59 62 60 51 54 52 50 44 40 37 34 35 35 33 33 29 25 25 24 22 18 19 19 17 15 14 12 10 9 8 7
10 2 1 14 10 6 8 10 12 16 19 28 29 37 46 51 52 58 56 60 64 60 57 59 54 48 45 41 34 34 36 37 37 32 31 29 27 24 24 25 24 19 18 17 15 13 12 11 10
6 5 6 5 15 7 16 16 15 32 25 28 32 40 47 53 55 56 58 56 64 65 66 62 58 55 51 47 41 38 40 39 40 37 36 33 31 30 29 28 25 23 22 20 21 20 18 15 15
7 8 9 4 24 6 10 10 21 32 34 38 44 50 53 56 57 59 60 56 60 66 69 69 64 63 56 51 47 43 41 43 43 42 41 37 37 36 33 30 27 27 26 24 24 24 22 17 16
11 7 7 13 13 11 10 15 12 13 19 42 51 53 57 61 61 57 59 58 57 63 62 65 67 67 62 59 55 53 50 47 48 47 45 42 41 40 39 36 33 33 32 30 26 27 27 23 23
9 8 10 6 6 8 13 24 19 50 32 35 32 47 62 67 61 59 55 57 58 65 65 65 63 70 70 71 69 65 64 55 51 54 49 48 47 45 44 42 39 39 38 34 30 30 32 30 28
6 5 6 8 7 8 15 27 20 27 37 53 56 54 51 64 70 67 61 60 62 67 69 68 68 65 69 73 76 74 69 64 56 53 54 53 53 50 49 46 44 43 43 40 39 39 39 37 36
9 13 7 10 4 7 6 24 21 17 53 64 65 63 64 67 69 68 69 70 65 66 73 72 69 69 68 68 75 79 77 74 70 66 61 59 58 55 54 52 48 47 47 46 43 41 44 43 45
22 14 9 8 5 9 10 14 13 11 27 24 61 73 77 78 77 79 73 70 75 71 67 70 70 71 68 68 75 77 84 86 79 73 64 61 62 61 59 58 54 53 51 51 48 44 45 46 46
11 13 22 3 5 10 7 8 10 5 15 20 46 67 84 87 84 83 81 77 66 73 71 67 69 72 73 73 75 75 80 87 84 82 75 69 66 67 64 63 60 60 59 56 55 53 55 54 56
13 9 5 6 4 21 19 18 12 15 15 16 37 65 69 66 67 74 83 78 78 73 82 75 73 71 74 73 75 81 81 81 86 86 84 78 73 72 72 68 67 66 66 65 61 60 62 63 65
16 18 6 11 14 23 11 15 39 12 18 21 33 62 69 58 62 53 64 75 77 78 77 83 79 74 70 71 76 82 84 80 82 82 80 80 79 78 75 72 72 73 71 70 69 69 70 70 74
50 34 10 16 11 9 8 19 14 25 59 66 68 62 55 53 51 50 50 56 76 73 72 77 80 75 74 72 72 76 81 81 80 82 80 78 78 76 73 72 70 71 74 74 75 77 78 79 80
18 28 17 9 4 4 11 16 15 19 21 37 51 69 78 49 39 39 43 46 50 67 70 71 76 77 76 76 74 75 75 79 80 79 78 77 75 74 71 70 69 66 67 70 75 80 82 86 87
26 27 10 1 8 11 12 12 20 12 42 38 26 51 71 67 38 29 26 26 32 43 60 67 70 70 68 70 76 75 73 72 71 73 73 73 74 73 71 70 68 64 63 65 69 74 77 82 87
21 30 17 13 10 10 7 16 16 37 31 35 39 57 56 65 57 43 35 33 33 37 41 50 54 54 55 58 61 67 70 70 70 72 73 76 76 75 76 74 71 68 67 65 68 69 75 78 79
38 25 40 14 27 8 4 23 9 19 17 9 26 39 38 42 47 46 38 32 31 28 25 30 38 45 47 50 54 57 59 61 66 70 70 68 71 71 69 67 67 65 62 63 67 70 69 77 80
Wind_Direction_850mb
301 308 326 341 52 62 29 217 284 127 70 46 105 117 129 66 109 192 152 159 160 173 167 163 157 158 150 137 126 116 103 70 80 92 98 102 95 95 92 97 94 94 92 96 98 98 89 84 86
296 308 327 69 87 71 279 271 167 187 134 108 84 84 61 86 117 139 150 154 149 168 168 165 165 167 162 151 137 134 108 96 85 81 114 104 100 95 98 100 98 94 96 99 102 101 94 87 82
305 329 353 85 115 159 188 205 160 128 153 97 109 83 86 118 122 147 157 153 164 170 168 165 167 166 167 164 158 149 147 136 131 109 115 107 105 102 101 100 101 99 100 104 109 106 101 92 89
334 340 63 84 182 215 198 170 174 142 126 161 125 75 89 140 156 162 159 168 175 177 172 164 164 169 170 166 164 167 174 166 166 111 105 114 109 106 106 101 104 104 106 110 109 110 105 102 97
336 28 56 75 266 262 213 165 166 138 124 135 142 141 129 154 162 164 161 175 180 182 172 158 162 161 157 163 171 174 177 180 177 116 112 116 114 108 108 108 109 109 110 111 113 111 104 97 93
314 80 70 222 262 282 187 167 166 162 147 146 108 128 146 180 179 161 169 177 186 191 165 166 163 161 157 161 167 163 179 174 145 120 126 121 115 116 119 117 118 117 116 117 118 114 106 96 94
90 91 192 173 254 245 205 185 184 167 150 169 145 126 169 178 169 166 181 186 196 193 181 174 168 166 166 162 166 169 161 174 162 143 137 133 129 126 127 124 121 120 121 122 122 119 115 106 92
57 75 142 242 212 213 173 144 182 164 131 148 167 177 188 181 169 180 191 195 198 206 193 188 179 176 174 173 179 177 169 162 163 155 150 149 141 136 134 129 128 129 131 131 128 124 112 107 95
123 60 194 209 179 217 165 139 158 163 153 179 189 183 198 179 173 187 198 197 200 202 202 199 193 185 184 182 180 185 185 185 178 171 163 156 149 144 141 138 138 142 144 139 133 126 120 111 72
136 131 218 245 206 197 184 176 161 156 162 189 182 186 180 181 181 189 202 198 202 206 208 205 200 196 196 197 195 195 194 193 190 179 170 164 161 157 156 156 157 160 159 156 154 153 142 124 16
172 177 239 269 119 166 156 182 184 148 228 213 200 190 181 185 188 195 200 204 205 210 215 213 208 205 205 206 205 205 205 200 198 188 181 176 176 177 176 183 185 183 179 176 177 178 174 206 329
169 241 240 283 68 111 173 178 207 189 223 252 201 215 191 194 195 199 203 202 208 214 220 218 215 213 210 211 215 215 213 213 211 202 194 188 188 188 192 197 201 205 207 210 210 213 216 248 309
160 224 254 263 263 247 204 215 226 232 223 219 200 205 203 203 204 206 208 205 210 214 218 222 216 213 213 214 216 218 220 223 223 216 209 203 202 201 207 212 215 221 227 230 228 235 235 254 329
205 210 233 276 260 220 191 228 201 243 215 222 220 215 211 211 211 210 210 211 213 214 218 223 224 215 214 214 216 221 223 226 228 221 218 217 217 216 223 233 235 239 245 247 247 248 252 251 289
229 56 238 236 226 236 169 285 228 225 217 218 213 215 217 219 217 218 218 215 217 216 218 226 230 218 217 218 220 224 225 226 229 228 224 224 225 225 226 231 237 242 249 252 256 255 254 269 271
145 134 229 237 169 231 170 253 244 225 207 211 224 223 224 225 227 225 224 226 222 224 223 227 233 230 222 223 225 228 227 229 231 231 229 229 230 231 234 238 244 246 253 261 262 257 251 256 274
353 191 181 253 200 131 192 253 238 236 219 228 236 236 229 230 229 229 228 230 229 228 229 230 232 231 231 230 229 232 234 236 236 234 233 233 235 236 241 246 248 251 255 261 268 257 248 249 271
188 181 193 194 210 200 234 252 279 220 218 232 244 243 239 235 239 237 234 234 232 229 230 231 233 229 232 235 236 235 237 238 239 239 239 237 239 242 246 248 248 250 256 259 263 258 245 247 253
152 169 175 219 263 196 237 250 247 255 256 254 255 243 242 242 245 242 240 236 234 227 226 224 228 228 231 234 235 236 238 240 240 240 239 240 241 241 245 250 251 252 256 263 263 261 248 244 252
160 206 219 296 271 174 283 268 242 244 253 256 258 250 246 246 248 247 241 235 234 231 227 227 226 228 231 235 238 238 241 244 246 249 245 243 243 245 248 251 254 256 258 257 252 254 252 241 249
196 177 189 206 317 220 279 272 264 241 243 253 254 251 252 250 249 250 247 240 236 235 233 229 229 227 233 237 239 239 242 245 247 247 247 244 245 246 247 252 254 254 254 254 254 253 250 244 246
228 170 205 219 166 226 160 280 247 237 244 236 248 247 248 248 249 251 247 245 236 239 239 237 236 233 232 234 238 241 243 245 248 250 252 251 248 248 249 249 251 251 252 253 252 249 247 245 246
206 159 209 245 276 339 217 275 268 254 256 246 246 247 250 249 248 248 246 242 242 240 241 241 238 238 237 236 239 243 246 248 252 253 254 253 253 251 251 252 253 252 251 254 253 250 246 248 251
130 93 91 73 131 255 222 216 205 213 207 241 252 256 256 253 253 253 247 247 245 245 240 240 238 241 240 239 241 244 247 248 251 252 254 256 256 255 255 254 254 255 255 256 257 255 252 252 255
174 159 186 199 211 244 182 199 245 231 237 241 252 252 257 258 256 252 243 243 241 242 241 241 239 240 243 244 245 245 248 251 254 256 258 260 261 261 261 260 259 259 259 259 259 257 256 255 255
197 185 170 194 204 258 92 232 244 211 233 247 254 263 264 261 256 249 247 242 239 242 241 242 242 244 244 247 250 250 250 252 255 257 258 262 264 268 270 271 267 267 266 266 264 262 260 258 258
188 208 187 99 64 51 217 282 288 250 262 258 252 250 251 252 242 245 243 237 236 239 243 244 245 247 248 248 252 254 253 253 256 259 263 265 268 270 273 274 274 272 271 270 269 268 267 265 262
184 179 183 140 165 245 255 264 236 233 223 231 244 233 243 239 244 238 225 224 230 237 240 243 246 249 253 254 253 255 258 260 263 265 267 270 272 274 275 277 278 278 277 275 271 270 268 267 270
188 194 197 182 173 196 258 254 209 217 216 232 233 234 242 233 238 237 230 232 235 239 237 235 235 239 245 250 251 254 256 259 262 263 265 267 271 272 273 274 275 276 275 274 273 269 272 273 273
208 205 203 212 218 222 178 258 242 235 251 278 237 236 228 222 220 219 221 222 226 227 223 224 229 237 244 249 252 254 257 259 261 263 265 267 268 271 272 274 275 277 277 278 279 274 275 271 271